BAW2522 EGKK-EGJJ

Flight info

Callsign BAW2522
Flight time 0h 34m
Altitude 20000
Route NOVMA L620 SAM N63 LELNA
Aircraft A320/M-SDE3FGHIRWY/LB1

Departure

Time 2026-04-18 11:24
Airport London Gatwick Airport (EGKK)

Arrival

Time 2026-04-18 11:59
Airport Jersey Airport (EGJJ)
Time Latitude Longitude Altitude Speed Heading
2026-04-18 10:58 51.15480 -0.17031 205 ft 0 kts 348°
2026-04-18 11:14 51.15472 -0.17028 215 ft 4 kts 345°
2026-04-18 11:14 51.15447 -0.17013 217 ft 4 kts 324°
2026-04-18 11:14 51.15431 -0.16984 214 ft 4 kts 278°
2026-04-18 11:14 51.15431 -0.16963 214 ft 1 kts 257°
2026-04-18 11:15 51.15431 -0.16961 214 ft 0 kts 257°
2026-04-18 11:18 51.15429 -0.16978 213 ft 3 kts 257°
2026-04-18 11:18 51.15422 -0.17024 210 ft 5 kts 257°
2026-04-18 11:18 51.15412 -0.17096 211 ft 8 kts 257°
2026-04-18 11:18 51.15386 -0.17187 211 ft 10 kts 254°
2026-04-18 11:19 51.15336 -0.17244 210 ft 10 kts 179°
2026-04-18 11:19 51.15280 -0.17216 211 ft 6 kts 152°
2026-04-18 11:19 51.15241 -0.17176 207 ft 8 kts 146°
2026-04-18 11:19 51.15201 -0.17114 212 ft 9 kts 114°
2026-04-18 11:20 51.15209 -0.16996 205 ft 12 kts 77°
2026-04-18 11:20 51.15229 -0.16878 212 ft 7 kts 78°
2026-04-18 11:20 51.15226 -0.16862 206 ft 0 kts 108°
2026-04-18 11:22 51.15225 -0.16859 206 ft 2 kts 108°
2026-04-18 11:22 51.15185 -0.16797 210 ft 14 kts 159°
2026-04-18 11:22 51.15120 -0.16814 213 ft 9 kts 239°
2026-04-18 11:23 51.15114 -0.16858 216 ft 0 kts 259°
2026-04-18 11:23 51.15114 -0.16859 206 ft 1 kts 259°
2026-04-18 11:23 51.15093 -0.17021 210 ft 45 kts 258°
2026-04-18 11:24 51.14922 -0.18257 208 ft 121 kts 258°
2026-04-18 11:24 51.14706 -0.19790 307 ft 153 kts 259°
2026-04-18 11:24 51.14491 -0.21399 922 ft 151 kts 260°
2026-04-18 11:24 51.14340 -0.22504 1357 ft 152 kts 261°
2026-04-18 11:25 51.14103 -0.24220 1746 ft 168 kts 260°
2026-04-18 11:25 51.13839 -0.26142 2061 ft 186 kts 261°
2026-04-18 11:25 51.13449 -0.28997 2486 ft 215 kts 260°
2026-04-18 11:25 51.13114 -0.31459 2888 ft 240 kts 259°
2026-04-18 11:26 51.12755 -0.34107 3606 ft 249 kts 259°
2026-04-18 11:26 51.12507 -0.35946 3846 ft 253 kts 260°
2026-04-18 11:26 51.12142 -0.38665 3914 ft 251 kts 259°
2026-04-18 11:26 51.11778 -0.41378 4012 ft 250 kts 260°
2026-04-18 11:27 51.11404 -0.44068 4010 ft 250 kts 256°
2026-04-18 11:27 51.10724 -0.46626 4041 ft 253 kts 245°
2026-04-18 11:27 51.09895 -0.49095 4807 ft 253 kts 244°
2026-04-18 11:27 51.09055 -0.51585 5677 ft 258 kts 244°
2026-04-18 11:28 51.08207 -0.54109 6600 ft 259 kts 244°
2026-04-18 11:28 51.07359 -0.56639 7491 ft 259 kts 243°
2026-04-18 11:28 51.06514 -0.59166 8403 ft 258 kts 243°
2026-04-18 11:28 51.05673 -0.61687 9303 ft 259 kts 244°
2026-04-18 11:29 51.05090 -0.64389 10129 ft 261 kts 259°
2026-04-18 11:29 51.04823 -0.67286 10695 ft 271 kts 260°
2026-04-18 11:29 51.04469 -0.70357 10885 ft 294 kts 257°
2026-04-18 11:29 51.04009 -0.73654 11109 ft 313 kts 256°
2026-04-18 11:30 51.03508 -0.77057 11666 ft 319 kts 256°
2026-04-18 11:30 51.03012 -0.80456 12346 ft 321 kts 256°
2026-04-18 11:30 51.02509 -0.83969 13056 ft 323 kts 256°
2026-04-18 11:30 51.02025 -0.87413 13758 ft 324 kts 257°
2026-04-18 11:31 51.01541 -0.90921 14429 ft 326 kts 257°
2026-04-18 11:31 51.01060 -0.94451 15042 ft 328 kts 257°
2026-04-18 11:31 51.00578 -0.98002 15629 ft 330 kts 257°
2026-04-18 11:31 51.00092 -1.01576 16195 ft 332 kts 257°
2026-04-18 11:32 50.99599 -1.05173 16764 ft 335 kts 257°
2026-04-18 11:32 50.99101 -1.08792 17327 ft 337 kts 257°
2026-04-18 11:32 50.98598 -1.12442 17912 ft 340 kts 257°
2026-04-18 11:32 50.98091 -1.16112 18489 ft 342 kts 257°
2026-04-18 11:33 50.97576 -1.19807 19006 ft 344 kts 257°
2026-04-18 11:33 50.97055 -1.23533 19517 ft 347 kts 257°
2026-04-18 11:33 50.96523 -1.27271 20025 ft 349 kts 255°
2026-04-18 11:33 50.95663 -1.30870 20199 ft 350 kts 243°
2026-04-18 11:34 50.94245 -1.34095 20246 ft 366 kts 230°
2026-04-18 11:34 50.92318 -1.36800 20248 ft 375 kts 218°
2026-04-18 11:34 50.90034 -1.38868 20248 ft 381 kts 210°
2026-04-18 11:34 50.87653 -1.40731 20247 ft 381 kts 211°
2026-04-18 11:35 50.85283 -1.42623 20242 ft 382 kts 211°
2026-04-18 11:35 50.82917 -1.44529 20252 ft 382 kts 211°
2026-04-18 11:35 50.80552 -1.46436 20254 ft 382 kts 211°
2026-04-18 11:35 50.78183 -1.48334 20257 ft 382 kts 211°
2026-04-18 11:36 50.75812 -1.50226 20261 ft 382 kts 211°
2026-04-18 11:36 50.73439 -1.52112 20276 ft 382 kts 211°
2026-04-18 11:36 50.71065 -1.53992 20276 ft 382 kts 211°
2026-04-18 11:36 50.68691 -1.55868 20276 ft 382 kts 211°
2026-04-18 11:37 50.66347 -1.57718 20279 ft 382 kts 211°
2026-04-18 11:37 50.63972 -1.59590 20279 ft 382 kts 211°
2026-04-18 11:37 50.61597 -1.61461 20258 ft 382 kts 211°
2026-04-18 11:37 50.59221 -1.63328 20261 ft 382 kts 211°
2026-04-18 11:38 50.56845 -1.65195 20264 ft 382 kts 211°
2026-04-18 11:38 50.54473 -1.67061 20269 ft 382 kts 211°
2026-04-18 11:38 50.52097 -1.68932 20279 ft 382 kts 211°
2026-04-18 11:38 50.49722 -1.70801 20283 ft 382 kts 211°
2026-04-18 11:39 50.47344 -1.72668 20286 ft 382 kts 211°
2026-04-18 11:39 50.44966 -1.74530 20288 ft 382 kts 211°
2026-04-18 11:39 50.42585 -1.76388 20289 ft 382 kts 211°
2026-04-18 11:39 50.40208 -1.78241 20270 ft 382 kts 211°
2026-04-18 11:40 50.37823 -1.80097 20275 ft 382 kts 211°
2026-04-18 11:40 50.35439 -1.81947 20278 ft 383 kts 211°
2026-04-18 11:40 50.33056 -1.83799 20280 ft 383 kts 211°
2026-04-18 11:40 50.30669 -1.85658 20294 ft 383 kts 211°
2026-04-18 11:41 50.28282 -1.87517 20296 ft 383 kts 211°
2026-04-18 11:41 50.25899 -1.89370 20282 ft 382 kts 211°
2026-04-18 11:41 50.23558 -1.91179 20028 ft 369 kts 211°
2026-04-18 11:41 50.21290 -1.92921 19777 ft 358 kts 211°
2026-04-18 11:42 50.19081 -1.94618 19526 ft 350 kts 211°
2026-04-18 11:42 50.16949 -1.96258 19185 ft 343 kts 211°
2026-04-18 11:42 50.14822 -1.97898 18752 ft 339 kts 211°
2026-04-18 11:42 50.12723 -1.99518 18290 ft 335 kts 211°
2026-04-18 11:43 50.10647 -2.01121 17850 ft 331 kts 211°
2026-04-18 11:43 50.08597 -2.02700 17385 ft 327 kts 211°
2026-04-18 11:43 50.06575 -2.04256 16943 ft 323 kts 211°
2026-04-18 11:43 50.04572 -2.05797 16496 ft 319 kts 211°
2026-04-18 11:44 50.02590 -2.07322 16058 ft 316 kts 211°
2026-04-18 11:44 50.00601 -2.08768 15612 ft 316 kts 205°
2026-04-18 11:44 49.98470 -2.09660 15165 ft 320 kts 194°
2026-04-18 11:44 49.96226 -2.09859 14686 ft 327 kts 182°
2026-04-18 11:45 49.93958 -2.09347 14180 ft 332 kts 174°
2026-04-18 11:45 49.91692 -2.08637 13647 ft 332 kts 174°
2026-04-18 11:45 49.89432 -2.07932 13149 ft 331 kts 174°
2026-04-18 11:45 49.87199 -2.07236 12913 ft 322 kts 174°
2026-04-18 11:46 49.85045 -2.06560 12835 ft 310 kts 174°
2026-04-18 11:46 49.82969 -2.05909 12712 ft 299 kts 174°
2026-04-18 11:46 49.80957 -2.05286 12584 ft 290 kts 174°
2026-04-18 11:46 49.79008 -2.04687 12457 ft 281 kts 174°
2026-04-18 11:47 49.77117 -2.04108 12335 ft 273 kts 175°
2026-04-18 11:47 49.75282 -2.03548 12215 ft 265 kts 175°
2026-04-18 11:47 49.73500 -2.03005 12097 ft 257 kts 175°
2026-04-18 11:47 49.71772 -2.02480 11959 ft 251 kts 175°
2026-04-18 11:48 49.70064 -2.01964 11863 ft 250 kts 175°
2026-04-18 11:48 49.68356 -2.01597 11530 ft 251 kts 180°
2026-04-18 11:48 49.66613 -2.01386 11205 ft 252 kts 182°
2026-04-18 11:48 49.64860 -2.01224 10886 ft 253 kts 182°
2026-04-18 11:49 49.63097 -2.01066 10566 ft 255 kts 182°
2026-04-18 11:49 49.61323 -2.00896 10245 ft 256 kts 181°
2026-04-18 11:49 49.59538 -2.00712 9898 ft 258 kts 181°
2026-04-18 11:49 49.57745 -2.00514 9567 ft 259 kts 181°
2026-04-18 11:50 49.55948 -2.00311 9242 ft 259 kts 180°
2026-04-18 11:50 49.54143 -2.00100 8914 ft 260 kts 180°
2026-04-18 11:50 49.52338 -1.99891 8585 ft 261 kts 180°
2026-04-18 11:50 49.50529 -1.99680 8234 ft 261 kts 179°
2026-04-18 11:51 49.48715 -1.99469 7925 ft 262 kts 179°
2026-04-18 11:51 49.46898 -1.99259 7598 ft 262 kts 179°
2026-04-18 11:51 49.45075 -1.99047 7273 ft 263 kts 179°
2026-04-18 11:51 49.43243 -1.98832 6934 ft 264 kts 178°
2026-04-18 11:52 49.41407 -1.98615 6601 ft 265 kts 179°
2026-04-18 11:52 49.39573 -1.98399 6245 ft 262 kts 178°
2026-04-18 11:52 49.37790 -1.98190 5921 ft 252 kts 178°
2026-04-18 11:52 49.36077 -1.97992 5613 ft 243 kts 178°
2026-04-18 11:53 49.34421 -1.97802 5208 ft 238 kts 179°
2026-04-18 11:53 49.32770 -1.97612 4751 ft 235 kts 179°
2026-04-18 11:53 49.31162 -1.97427 4426 ft 228 kts 178°
2026-04-18 11:53 49.29612 -1.97248 4138 ft 220 kts 179°
2026-04-18 11:54 49.28112 -1.97075 3889 ft 212 kts 178°
2026-04-18 11:54 49.26666 -1.96909 3616 ft 205 kts 177°
2026-04-18 11:54 49.25260 -1.96746 3343 ft 200 kts 178°
2026-04-18 11:54 49.23887 -1.96679 3082 ft 195 kts 193°
2026-04-18 11:55 49.22812 -1.97693 2931 ft 175 kts 239°
2026-04-18 11:55 49.22453 -1.99346 2800 ft 159 kts 269°
2026-04-18 11:55 49.22322 -2.00996 2604 ft 155 kts 268°
2026-04-18 11:55 49.22186 -2.02581 2493 ft 144 kts 266°
2026-04-18 11:56 49.22056 -2.04099 2270 ft 145 kts 268°
2026-04-18 11:56 49.21936 -2.05638 1999 ft 146 kts 268°
2026-04-18 11:56 49.21815 -2.07137 1756 ft 140 kts 267°
2026-04-18 11:56 49.21691 -2.08616 1594 ft 140 kts 267°
2026-04-18 11:57 49.21571 -2.10094 1425 ft 140 kts 268°
2026-04-18 11:57 49.21449 -2.11580 1222 ft 140 kts 268°
2026-04-18 11:57 49.21327 -2.13048 1007 ft 139 kts 267°
2026-04-18 11:57 49.21207 -2.14529 833 ft 140 kts 267°
2026-04-18 11:58 49.21084 -2.15993 666 ft 140 kts 266°
2026-04-18 11:58 49.20968 -2.17465 459 ft 136 kts 267°
2026-04-18 11:58 49.20854 -2.18865 293 ft 129 kts 266°
2026-04-18 11:58 49.20766 -2.19938 284 ft 62 kts 262°
2026-04-18 11:59 49.20730 -2.20326 283 ft 29 kts 262°
2026-04-18 11:59 49.20707 -2.20599 283 ft 17 kts 262°
2026-04-18 11:59 49.20658 -2.20697 284 ft 11 kts 178°
2026-04-18 11:59 49.20625 -2.20615 284 ft 9 kts 94°
2026-04-18 12:00 49.20621 -2.20523 284 ft 11 kts 98°
2026-04-18 12:00 49.20594 -2.20365 284 ft 17 kts 106°
2026-04-18 12:00 49.20563 -2.20207 284 ft 10 kts 107°
2026-04-18 12:00 49.20539 -2.20090 285 ft 13 kts 107°
2026-04-18 12:01 49.20442 -2.19905 288 ft 11 kts 142°
2026-04-18 12:01 49.20437 -2.19782 284 ft 13 kts 84°
2026-04-18 12:01 49.20441 -2.19659 284 ft 8 kts 91°
2026-04-18 12:02 49.20482 -2.19621 288 ft 3 kts 15°
2026-04-18 12:02 49.20486 -2.19619 287 ft 0 kts 16°